Date,TemperatureHighF,TemperatureAvgF,TemperatureLowF,DewpointHighF,DewpointAvgF,DewpointLowF,HumidityHigh,HumidityAvg,HumidityLow,PressureMaxIn,PressureMinIn,WindSpeedMaxMPH,WindSpeedAvgMPH,GustSpeedMaxMPH,PrecipitationSumIn
2013-3-1,43,37,34,36,32,27,98,80,66,29.78,29.70,4,2,0,0.06
2013-3-2,40,35,31,36,31,21,98,87,62,29.84,29.71,11,2,0,0.24
2013-3-3,39,31,22,22,18,14,81,60,42,29.88,29.81,7,3,0,0.00
2013-3-4,59,34,16,29,18,12,98,61,16,29.98,29.75,5,1,0,0.00
2013-3-5,49,40,35,49,36,25,98,87,57,29.81,29.40,10,2,0,1.95
2013-3-6,38,33,30,33,29,24,98,84,76,30.02,29.63,8,3,0,0.02
2013-3-7,40,35,32,32,29,27,98,81,65,30.14,30.00,8,2,0,0.01
2013-3-8,57,40,25,30,27,24,98,64,29,30.19,30.05,7,3,0,0.00
2013-3-9,72,45,27,35,29,22,98,61,15,30.10,29.95,6,2,0,0.00
2013-3-10,78,56,38,41,34,23,96,54,13,29.96,29.73,7,1,0,0.00
2013-3-11,66,60,51,56,46,28,98,64,27,29.76,29.51,14,5,0,0.94
2013-3-12,60,46,38,50,38,33,98,76,39,29.85,29.61,6,2,0,0.08
2013-3-13,50,39,30,34,26,17,98,64,31,30.07,29.84,12,3,0,0.00
2013-3-14,53,37,24,21,17,12,74,46,20,30.19,30.00,8,3,0,0.00
2013-3-15,71,50,29,44,34,20,98,59,32,30.04,29.66,7,2,0,0.00
2013-3-16,81,67,60,50,46,42,54,47,32,29.67,29.52,14,5,0,0.00
2013-3-17,80,66,54,52,48,46,78,53,37,29.74,29.58,7,3,0,0.00
2013-3-18,68,56,49,57,50,44,98,83,55,29.67,29.53,8,2,0,1.19
2013-3-19,67,52,33,52,31,-3,98,58,8,29.90,29.56,10,3,0,0.10
2013-3-20,62,46,28,33,13,3,77,31,11,29.92,29.65,9,3,0,0.00
2013-3-21,49,34,23,27,12,6,65,42,19,29.80,29.71,9,3,0,0.00
2013-3-22,51,34,21,26,18,14,84,54,24,29.85,29.75,5,1,0,0.00
2013-3-23,58,45,39,44,37,26,98,74,53,29.81,29.59,8,2,0,0.03
2013-3-24,56,49,45,54,47,40,98,93,74,29.58,29.11,9,2,0,0.94
2013-3-25,46,36,32,43,31,26,98,81,63,29.77,29.26,18,5,0,0.08
2013-3-26,42,35,31,32,28,26,90,78,56,30.05,29.77,6,2,0,0.03
2013-3-27,59,41,29,32,27,21,98,64,23,30.12,30.03,6,2,0,0.00
2013-3-28,65,42,23,31,20,1,98,58,8,30.15,30.01,7,2,0,0.00
2013-3-29,50,38,28,44,31,19,98,77,43,30.15,30.01,4,1,0,0.16
2013-3-30,69,51,42,49,44,41,98,82,44,30.03,29.79,5,2,0,0.19
2013-3-31,65,56,51,58,54,49,98,94,70,29.81,29.61,6,2,0,1.22